Location: Seclusion Ranch
(37.6167°N, 104.1333°W)
Time: 22:45:06
(UTC-07:00)

ISS - Visible Passes

Search period start: 19 November 2018 00:00
Search period end: 29 November 2018 00:00
Orbit: 401 x 408 km, 51.6° (Epoch: 20 November)

Date Brightness Start Highest point End Pass type
(mag) Time Alt. Az. Time Alt. Az. Time Alt. Az.
20 Nov -1.1 18:30:24 10° S 18:30:33 11° S 18:30:33 11° S visible
21 Nov -0.5 19:13:40 10° SW 19:13:46 11° SW 19:13:46 11° SW visible
22 Nov -3.1 18:21:39 10° SSW 18:24:12 43° S 18:24:12 43° S visible
23 Nov -2.4 17:30:05 10° S 17:32:47 24° SE 17:34:32 16° E visible
23 Nov -0.8 19:06:14 10° W 19:07:13 17° W 19:07:13 17° W visible
24 Nov -3.5 18:13:44 10° WSW 18:16:56 57° NW 18:17:26 49° N visible
25 Nov -3.8 17:21:32 10° SW 17:24:46 69° SE 17:27:35 13° NE visible
25 Nov -0.9 18:59:21 10° WNW 19:00:15 14° NW 19:00:15 14° NW visible
26 Nov -2.1 18:06:23 10° W 18:09:10 25° NNW 18:10:18 21° N visible
27 Nov -3.0 17:13:44 10° WSW 17:16:52 44° NW 17:20:00 10° NE visible
28 Nov -1.4 17:59:35 10° WNW 18:01:30 15° NNW 18:02:52 12° N visible
